Probability
0 0 0 1 1 2 3 3 3 2 1 1 2 5 8 6 3 4 6 3 1 0 1 2 3 4 5 7 9 11 11 13 15 15 12 10 9 8
0 0 0 0 1 2 2 3 3 2 2 2 2 3 4 3 2 3 5 3 1 0 0 1 1 1 2 4 5 5 5 6 9 9 8 7 7 7
0 0 0 0 0 1 1 2 2 2 2 1 1 1 1 2 2 3 4 3 2 0 0 0 0 0 0 1 1 1 0 1 2 3 3 3 3 2
0 0 0 0 0 0 0 1 1 1 1 1 1 2 2 3 4 4 4 4 3 1 0 0 0 0 0 0 0 0 0 0 0 0 0 0 0 0
0 0 0 0 0 0 0 0 0 0 0 0 1 2 3 4 5 5 4 3 2 1 0 0 0 0 0 0 0 0 0 0 0 0 0 0 0 0
0 0 0 0 0 0 0 0 0 0 0 0 0 1 2 3 5 5 3 2 1 0 0 0 0 0 0 0 0 0 0 0 0 0 0 0 0 0
0 0 0 0 0 0 0 0 0 0 0 0 0 0 1 2 4 3 2 2 1 1 0 0 0 0 0 0 0 0 0 0 0 0 0 0 0 0
0 0 0 0 0 0 0 0 0 0 0 0 0 0 0 1 2 1 1 2 2 2 1 0 0 0 0 0 0 0 0 0 0 0 0 0 0 0
0 0 0 0 0 0 0 0 0 0 0 0 0 0 0 0 0 0 0 1 1 1 1 0 0 0 0 0 0 0 0 0 0 0 0 0 0 0
0 0 0 0 0 0 0 0 0 0 0 0 0 0 0 0 0 0 0 0 0 0 0 0 0 0 0 0 0 0 0 0 0 0 0 0 0 0
0 0 0 0 0 0 0 0 0 0 0 0 0 0 0 0 0 0 0 0 0 0 0 0 0 0 0 0 0 0 0 0 0 0 0 0 0 0
0 0 0 0 0 0 0 0 0 0 1 1 1 0 0 0 0 0 0 0 0 0 0 1 1 1 0 0 0 0 0 0 0 0 0 0 0 0
0 0 0 0 0 0 0 0 0 0 1 2 2 1 0 0 0 0 0 0 0 0 0 1 1 1 0 0 0 0 0 0 0 0 0 0 0 0
0 0 0 0 0 0 0 0 0 0 1 1 2 2 1 1 1 1 1 0 0 0 0 0 0 0 0 0 0 0 0 0 0 0 0 0 0 0
0 0 0 0 0 0 0 0 0 0 0 0 1 1 1 1 1 2 1 0 0 0 0 0 0 0 0 0 0 0 0 0 0 0 0 0 0 0
0 0 0 0 0 0 0 0 0 0 0 0 0 0 0 0 1 2 2 1 0 0 0 0 0 0 0 0 0 0 0 0 0 0 0 0 0 0
0 0 0 0 0 0 0 0 0 0 0 0 0 0 0 0 1 1 1 1 0 0 0 1 1 0 0 0 0 0 0 0 0 0 0 0 0 0
0 0 0 0 0 0 0 0 0 0 0 0 0 0 0 0 1 1 1 1 0 0 1 1 1 0 0 0 0 0 0 0 0 0 0 0 0 0
0 0 0 0 0 0 0 0 0 0 0 0 0 0 0 0 1 2 1 0 0 0 0 1 1 0 0 0 0 0 0 0 0 0 0 0 0 0
0 0 0 0 0 0 0 0 0 0 0 0 0 0 0 0 0 1 1 0 0 0 0 0 0 0 0 0 0 0 0 0 0 0 0 0 0 0
0 0 0 0 0 0 0 0 0 0 0 0 0 0 0 0 0 0 0 0 0 0 0 0 0 0 0 0 0 0 0 0 0 0 0 0 0 0
0 0 0 0 0 0 0 0 0 0 0 0 0 0 0 0 0 0 0 0 0 0 0 0 0 0 0 0 0 0 0 0 0 0 0 0 0 0
0 0 0 0 0 0 0 0 0 0 0 0 0 0 0 0 0 0 0 0 0 0 0 0 0 0 0 0 0 0 0 0 0 0 0 0 0 0
Wind_Speed
5 5 4 4 4 4 4 4 4 5 5 5 3 2 1 1 2 3 3 8 11 13 15 16 17 18 20 20 20 19 19 19 18 18 18 19 19 19
5 6 5 4 4 4 4 4 4 5 5 4 4 3 2 2 3 3 4 7 11 13 14 15 16 17 18 19 19 19 19 19 19 18 18 18 17 18
6 6 6 6 5 4 4 4 4 4 6 5 4 3 3 3 3 2 3 4 5 11 13 14 15 16 16 17 18 18 19 19 19 19 18 18 17 17
6 6 6 6 6 5 5 5 5 5 5 7 5 4 5 4 4 4 4 4 3 7 11 12 14 15 16 16 17 18 18 18 18 18 17 17 17 16
6 6 6 7 6 5 6 6 5 6 5 5 5 4 4 4 4 4 4 3 3 4 7 9 11 12 14 15 16 16 16 17 17 17 16 16 15 15
6 6 7 7 7 6 6 6 6 6 6 5 5 5 4 4 3 3 3 2 3 3 3 4 7 9 11 13 14 15 15 15 15 15 15 14 14 14
6 7 8 9 9 7 8 5 5 4 4 5 5 5 4 3 3 3 3 2 3 2 2 3 3 4 6 9 12 14 14 14 14 14 14 13 13 12
7 7 8 10 12 14 14 13 10 8 6 5 5 5 5 4 3 3 2 2 2 2 2 3 3 3 4 4 9 13 14 14 14 13 13 13 12 12
8 8 10 11 9 6 9 13 13 15 14 9 9 8 6 5 4 4 3 3 3 2 1 2 2 2 1 3 9 12 13 13 13 13 13 12 12 12
9 9 9 9 10 8 7 7 7 8 11 11 10 10 9 6 5 5 5 4 3 2 2 2 1 1 2 2 6 9 11 12 13 13 13 13 12 11
10 10 9 9 10 9 7 7 7 7 11 14 14 13 14 11 7 4 4 4 4 3 3 3 2 2 2 2 4 8 9 10 12 13 13 13 13 11
7 8 10 10 10 8 7 7 8 7 7 8 7 9 10 10 11 8 6 5 4 3 4 4 4 3 2 2 3 4 6 8 10 11 13 14 14 8
7 6 4 4 7 9 9 7 8 7 6 6 6 6 6 7 8 8 8 7 6 4 4 4 4 4 3 3 2 3 5 5 5 6 10 13 12 8
7 7 4 2 4 7 8 9 9 7 6 6 7 6 6 6 7 7 8 8 7 5 5 5 4 5 5 4 4 4 4 5 6 6 6 9 7 6
8 9 8 8 7 8 13 13 9 7 7 8 8 7 6 6 6 6 7 7 6 6 7 6 5 5 5 5 5 6 5 5 6 7 7 7 6 6
8 9 11 13 12 11 9 8 8 9 8 8 7 6 5 5 5 5 5 5 5 5 6 7 7 7 5 5 6 7 6 7 8 7 7 6 6 6
4 6 7 7 7 7 7 7 7 8 9 8 7 6 6 5 5 5 5 5 5 6 5 5 5 4 4 5 7 7 7 7 8 8 7 7 6 6
4 7 8 8 7 6 6 7 7 7 7 7 7 6 6 6 5 4 5 6 6 6 6 5 5 4 3 1 4 7 7 7 7 8 7 7 7 6
6 8 9 8 7 6 6 6 7 7 6 6 6 6 6 6 5 5 6 6 6 6 6 6 7 7 7 6 4 6 7 7 8 7 7 6 7 7
8 9 8 7 6 6 6 6 6 5 5 6 6 6 6 6 5 6 6 7 6 6 6 6 7 7 7 7 5 4 7 8 8 8 7 4 4 6
7 7 7 6 6 6 5 5 5 5 5 5 6 6 6 6 5 6 6 8 7 6 7 7 7 9 4 5 5 4 5 6 7 7 7 6 6 5
7 7 6 5 5 5 4 5 5 5 5 5 5 5 5 5 6 6 6 6 6 6 7 6 7 7 5 7 7 7 6 6 5 7 6 4 5 7
5 5 5 5 5 4 4 5 5 4 4 5 5 4 4 4 4 4 5 5 5 6 6 6 6 6 6 6 7 7 9 9 6 5 3 6 3 4
Wind_Direction
274 275 262 267 271 267 265 261 265 275 279 284 285 245 195 196 209 231 242 224 219 218 219 218 216 213 210 208 207 207 208 208 209 211 214 216 216 219
267 267 271 265 268 272 271 265 255 257 268 277 284 281 270 264 227 232 243 239 226 220 218 217 216 213 210 208 208 207 207 207 208 210 211 212 213 215
272 270 264 264 265 270 270 268 264 259 265 271 268 279 271 269 262 251 246 236 223 217 217 217 215 212 210 208 208 208 208 209 209 210 210 210 210 212
273 273 272 269 261 258 260 262 261 258 258 268 271 276 272 264 252 247 253 243 231 219 215 215 213 210 208 206 206 207 207 206 206 206 206 207 209 210
274 273 271 269 268 262 260 263 266 267 255 257 262 257 254 257 256 255 255 245 236 222 211 210 209 207 207 205 205 205 203 202 201 201 203 204 205 207
268 270 271 267 265 264 263 255 259 265 270 267 263 259 253 247 238 240 256 248 239 219 202 195 199 201 203 201 200 200 198 196 195 195 197 199 201 201
283 277 272 268 263 260 265 265 274 274 274 274 270 266 256 247 240 228 242 245 237 212 189 190 183 191 196 198 197 194 192 190 188 187 187 188 189 189
281 278 277 270 258 245 242 244 245 252 258 263 271 269 273 274 270 248 240 239 245 214 197 200 180 187 187 185 184 182 182 182 181 180 179 178 179 179
272 272 275 276 281 266 247 240 242 243 239 244 257 263 271 272 276 275 256 251 245 207 201 222 182 174 157 153 164 170 172 173 172 171 171 173 171 170
263 261 261 265 271 269 270 262 250 244 235 232 237 244 251 255 244 249 252 256 258 223 193 205 182 143 121 122 144 156 161 163 164 164 163 164 162 161
262 261 258 258 257 251 250 257 261 260 256 245 229 230 232 237 231 234 237 230 242 229 197 184 160 132 118 117 133 147 150 152 154 156 156 155 152 147
272 266 261 257 258 240 235 246 256 259 267 275 254 242 236 232 224 219 222 224 228 227 198 176 162 148 142 123 143 150 141 142 148 152 153 153 153 149
281 283 282 277 252 237 232 243 251 264 274 270 265 251 236 229 224 218 216 217 218 224 192 173 167 159 150 143 147 158 151 146 145 149 157 161 165 160
274 280 290 300 267 250 239 245 250 255 258 258 255 248 235 227 226 220 214 212 212 210 199 183 175 169 156 151 153 154 157 156 153 154 160 164 174 177
262 275 285 277 266 252 243 244 244 241 243 246 246 246 240 230 223 220 217 212 211 209 202 196 184 172 169 160 155 158 157 166 164 159 162 168 171 164
257 270 265 256 249 254 256 236 228 234 236 239 241 244 248 237 225 215 210 201 201 208 203 194 190 178 179 169 161 165 164 166 169 166 163 167 171 173
304 279 271 261 247 239 239 236 227 223 229 237 240 241 240 236 226 213 205 196 198 202 197 186 181 175 180 171 168 170 166 163 167 165 164 169 178 180
266 269 270 266 261 254 247 244 236 230 227 227 230 233 237 232 222 211 202 201 204 200 193 179 165 156 153 175 175 168 170 168 164 165 166 169 178 181
240 258 262 262 261 259 253 248 243 232 223 221 224 226 228 227 219 212 206 204 206 201 189 178 177 177 180 183 184 185 172 165 162 168 176 173 175 174
238 251 258 259 256 256 254 251 245 234 224 221 221 222 223 220 213 209 207 206 202 198 190 183 187 190 190 177 163 173 178 167 165 170 175 159 129 123
264 261 260 259 257 257 253 250 246 233 224 220 221 219 219 214 209 208 204 204 203 197 195 195 193 183 164 141 143 151 161 167 164 166 165 155 149 150
268 271 269 265 260 254 250 246 242 232 222 224 224 216 214 209 205 203 199 195 198 199 197 188 172 171 174 175 171 163 158 149 123 108 110 124 158 171
269 274 278 278 267 251 241 241 240 232 219 219 218 211 208 205 203 201 201 200 200 195 182 175 172 175 182 178 168 160 160 157 150 139 95 34 57 117